DELTA 1 DEB, 7198

Orbit data source: Space-Track

DELTA 1 DEB, 7198 is space debris in SSO originally from a launch on Tue, 06 Nov 1973 UTC launched from the Air Force Western Test Range (AFWTR). Debris objects in space refer to the collection of defunct objects orbiting the Earth. Examples of debris include non-operational satellites, rocket bodies, and fragments generated from explosions, collisions, or faulty payload assembly.

Loading next visibility...
Identifier
7198, 1973-086FG
Orbit
SSO
Country
Flag of USUS
Related business
Manufacturer
Unknown
Mission
Spacecraft
Bus & Motor
Unknown
Mass
Unknown
Launch date (UTC)
1973-11-06 (53 years ago)
Launch vehicle
Unknown
Launch site
Air Force Western Test Range (AFWTR)
Object type
Payload
Rocket body
Debris
Shape & HBR
Unknown shape, 0.1 m
Radar Cross Section
Medium (>0.1 m² and <1 m²)

Expand to show TLE details & history
Last TLE update: 20 hours ago

TLE from 20 hours ago
0 DELTA 1 DEB
1 07198U 73086FG  26254.83610421  .00000755  00000-0  29535-2 0  9996
2 07198 102.3310 220.7592 0145402 352.1829  78.9499 12.89943078469893
Epoch: 2026-09-11T20:03Z
TLE epoch observation values (Epoch: 2026-09-11T20:03:59.403Z)
Latitude
69.00395°
Longitude
-105.61534°
Altitude
1,293.668 km
Speed
7.225 km/s
True Right ascension
12h 24m 56s
True Declination
68° 53' 48"
Sunlit
Object was in daylight at epoch
Visualization orbit readout
Latitude
Unknown
Longitude
Unknown
Altitude
Unknown
Speed
Unknown
Apparent Right ascension
Unknown
Apparent Declination
Unknown
Sunlit
N/A
Visualization observer readout
Local Sidereal Time
08:46:21
Azimuth
Unknown
Elevation
Unknown
Doppler factor
Unknown
Orbital elements
Apogee altitude
1,410.91 km
Perigee altitude
1,187.648 km
Semi-major axis
7,677.416 km
Eccentricity
0.01454
Inclination
102.331°
RAAN
220.7592°
Arg. of periapsis
352.1829°
True anomaly
80.59068°
Mean anomaly
78.9499°
Eccentric anomaly
79.76975°
Mean motion
3.22642 °/min
Orbital period
111.58 mins
BSTAR
0.0029535
Loading maneuver chart data...
Computing Atmospheric mass density...
Loading historical data...
Loading historical data...
Loading historical data...
Loading historical data...
Loading historical data...
Loading historical data...
Loading historical data...

Documentation

Showing up to 5 results
|